Погода в Кацуге

Погода в Кацуге : погода сейчас, прогноз погоды и архив. Всё, что Вы хотите узнать о погоде в Кацуге!

Поиск расширенной информации на нашем сайте:

Другие новости

Новости СМИ2

Главная страница сайта

Новости сайта

03.07.2017

Напоминаем, что на нашем специализированном сайте Метеоцентр.Азия вы можете получить высокодетализированные автоматические прогнозы погоды по пунктам России, СНГ и мира в авиационном формате (включающие направление и скорость ветра, видимость, явления погоды, количество и форму облачности, нижнюю и верхнюю границу облачности).


Погода в Кацуге - сегодня

Время (UTC), дата Ветер
(°,м/с) 
Видим.   Явления Облачность Т
(°С)
Тd
(°С)
f(%) Тe
(°С)
Pmin
(гПа)
dP
(гПа)
Po
(мм)
O2
(г/м3)
Тmin Tmax R s Состояние
почвы
15 17.10.17 280 (З) н/о    10/8 600 м кучево-дожд., средняя, верхняя 
[Cb cap|Ac trans|Ci ing]
+1.3 -1.2 83 +2  1024.9  1.1  721  289           
18 17.10.17 тихо ()   н/о    10/5 1000 м кучево-дожд., средняя, верхняя 
[Cb cap|Ac trans|Ci ing]
+0.2 -1.9 86 1025.6  0.4  721  290           
21 17.10.17 тихо ()   н/о  в посл. час ливневой снег  10/6 600 м кучево-дожд., средняя, верхняя 
[Cb cap|Ac trans|Ci ing]
-0.3 -1.4 92 -0  1025.8  721  291           
00 18.10.17 290 (З) 20000 м  {ливн. осадки}  8/4 1000 м средняя, верхняя 
[Sc|Ac trans|Ci ing]
-1.5 -2.3 94 -1  1026.6  0.5  722  293  -1.5    0.0     
03 18.10.17 280 (З) 20000 м    9/5 600 м кучево-дожд., средняя, верхняя 
[Cb cap|Ac trans|Ci ing]
+4.7 +0 72 +6  1025.8  0.6  722  286  -1.5         
06 18.10.17 270 (З) 20000 м    9/6 1000 м кучево-дожд., средняя, верхняя 
[Cb cap|Ac trans|Ci ing]
+6.4 -2.3 54 +6  1024  -1.3  721  284           
09 18.10.17 310 (СЗ) 20000 м    9/6 600 м кучево-дожд., средняя 
[Cb cap|Ac trans]
+5.6 -3.5 52 +5  1023.2  -0.9  720  285           
12 18.10.17 140 (ЮВ) н/о    9/5 600 м кучево-дожд., средняя, верхняя 
[Cb cap|Ac trans|Ci ing]
+2.2 -3.1 68 +3  1023.7  -0.3  720  288    +7       
15 18.10.17 тихо ()   н/о    4/0 верхняя 
[Ci ing]
-3.8 -6 85 -4  1024.5  -0.7  720  295           
18 18.10.17 030 (СВ) н/о    8/3 1000 м кучево-дожд., средняя, верхняя 
[Cb cap|Ac trans|Ci ing]
-2.2 -4.3 85 -2  1023  -1  719  292           
21 18.10.17 тихо ()   н/о    9/3 1000 м кучево-дожд., средняя, верхняя 
[Cb cap|Ac trans|Ci ing]
-2 -3.8 87 -2  1021.8  -1.1  718  292           
00 19.10.17 тихо ()   20000 м    10/6 1000 м кучево-дожд., средняя, верхняя 
[Cb cap|Ac trans|Ci ing]
-1.8 -3.8 86 -2  1021.8  -0.1  718  292  -4.6         
03 19.10.17 170 (Ю) 20000 м    8/3 1000 м кучево-дожд., средняя, верхняя 
[Cb cap|Ac trans|Ci ing]
+2.4 -2.7 69 +3  1021.4  0.6  719  287           
06 19.10.17 270 (З) 20000 м    3/1 1000 м верхняя 
[Cu hum|Ci ing]
+5.8 -4 49 +6  1020  -0.6  718  284           
09 19.10.17 310 (СЗ) 20000 м    ясно 
+6.8 -6.7 37 +7  1020.1  0.3  718  283           
12 19.10.17 120 (ЮВ) н/о    ясно 
-1.8 -7 68 -1  1023.9  1.7  720  293    +7.4       
15 19.10.17 080 (В) н/о    ясно 
-5.8 -8 84 -5  1027.1  721  298           
18 19.10.17 тихо ()   н/о    ясно 
-8.3 -9.7 90 -8  1029.2  1.4  722  301           
21 19.10.17 тихо ()   н/о    ясно 
-10 -11.2 91 -10  1030.6  0.9  723  303           
00 20.10.17 тихо ()   20000 м    ясно 
-11.2 -12.7 89 -11  1031.9  0.9  723  305  -11.2         
03 20.10.17 200 (Ю) 20000 м    ясно 
-3.6 -7.5 74 -3  1030.1  0.1  724  296           
06 20.10.17 100 (В) 20000 м    3/0 верхняя 
[Ci ing]
+1.6 -10.4 40 +1  1026.5  -2.2  722  290           
09 20.10.17 100 (В) 20000 м    4/0 верхняя 
[Ci ing]
+2.3 -12.4 33 +3  1024.2  -2  720  289           
12 20.10.17 250 (З) н/о    ясно 
-5.2 -10.3 67 -5  1025.5  -0.5  720  297    +2.9       
15 20.10.17 290 (З) н/о    ясно 
-8.7 -10.7 85 -8  1026.7  0.3  720  301           
Время (UTC), дата Ветер
(°,м/с) 
Видим.   Явления Облачность Т
(°С)
Тd
(°С)
f(%) Тe
(°С)
Pmin
(гПа)
dP
(гПа)
Po
(мм)
O2
(г/м3)
Тmin Tmax R s Состояние
почвы

Для получения пояснительной информации подведите курсор к названию столбца.

ПОГОДА в Кацуге - архив

Всё, что Вы хотите узнать о погоде в Кацуге - удобно и подробно!

Выберите нужную дату (начиная с 1 января 2015* года) и нажмите кнопку "Найти".
Будут отображены архивные сводки погоды по пункту Кацуг, начиная с указанной даты.


Отображать данные в формате CSV (для использования в таблицах Excel)


Внимание! Наш архив погоды предназначен исключительно для личного некоммерческого использования в познавательных целях. Если Вам необходимы официальные справки о состоянии погоды (для производственных, юридических, коммерческих и т.п. целей), обращайтесь в органы Росгидромета.

*Примечание: данная дата относится к архиву по метеостанциям СССР (Россия, СНГ, Балтия).
Архив по метеостанциям Зарубежной Европы и Азии (кроме Китая) хранится 10 дней, по другим регионам земного шара (Китай, Африка, Америка, Австралия, Океания) - 1 день.

Кацуг - район местоположения метеостанции


Название, широта, долгота, высота метеостанции:
Кацуг 54°ш. 105.9°д. 533 м над ур. моря [Российская Федерация]

Дополнительная информация

В oтличие oт бoльшинства пoгoдных сайтoв мы публикуем пoдрoбную метеoинфoрмацию в детальнoм прoфессиoнальнoм фoрмате.

Характеристики температуры и влажнoсти вoздуха измеряются на высoте 2 м в тени вдали oт зданий и деревьев.
Скoрoсть ветра измеряется на высoте 10 м (на урoвне рoста челoвека скoрoсть ветра ниже в 1.5-2 раза). Если метеoстанция нахoдится в гoрoде или в лесу, тo скoрoсть ветра занижена на 2-4 м/с пo сравнению с oткрытым местoм. Скoрoсть ветра над акватoриями крупных рек и oзёр, а также на вершинах хoлмoв на 2-5 м/с выше, чем в oбычных услoвиях.
Атмoсфернoе давление в разных тoчках местнoсти мoжет значительнo oтличаться oт давления на метеoстанции, в зависимoсти oт услoвий рельефа (при пoдъёме на 10 м давление пoнижается примернo на 1 мм рт.ст.).